Weather History for Fort Benning, GA

Change the Weather History Date:

Thursday, October 31, 2013

  Actual Average Record
Temperature  
Mean Temperature 65 °F -  
Max Temperature 80 °F 73 °F 86 °F (2000)
Min Temperature 51 °F 46 °F 28 °F (2001)
Growing Degree Days 15 (Base 50)    
Moisture  
Dew Point 58 °F    
Average Humidity 88    
Maximum Humidity 100    
Minimum Humidity 56    
Precipitation  
Precipitation 0.00 in - - ()
Sea Level Pressure  
Sea Level Pressure 30.07 in    
Wind  
Wind Speed 2 mph (South)    
Max Wind Speed 14 mph    
Max Gust Speed 18 mph    
Visibility 7 miles    
Events Fog    
Averages and records for this station are not official NWS values.
T = Trace of Precipitation, MM = Missing Value Source: NWS Daily Summary

Daily Weather History Graph

Daily Weather History Graph

Search for Another Location

Airport:

Trip Planner

Search our weather history database for the weather conditions in past years. The results will help you decide how hot, cold, wet, or windy it might be!

Date:

Astronomy

Oct. 31, 2013 Rise Set
Actual Time 7:56 AM EDT 6:50 PM EDT
Civil Twilight 7:31 AM EDT 7:15 PM EDT
Nautical Twilight 7:02 AM EDT 7:44 PM EDT
Astronomical Twilight 6:33 AM EDT 8:13 PM EDT
Moon 4:54 AM EDT (10/31) 4:59 PM EDT (10/31)
Length of Visible Light 11h 44m
Length of Day
10h 53m
Waning Crescent, 10% of the Moon is Illuminated
Oct 31
Waning Crescent
Nov 3
New
Nov 10
First Quarter
Nov 17
Full
Nov 25
Last Quarter

Hourly Weather History & Observations

Time (EDT) Temp. Dew Point Humidity Pressure Visibility Wind Dir Wind Speed Gust Speed Precip Events Conditions
12:03 AM 53.6 °F 53.6 °F 100% 30.16 in 3.0 mi Calm Calm - N/A   Clear
12:08 AM 55.4 °F 55.4 °F 100% 30.16 in 2.5 mi Calm Calm - N/A   Clear
12:13 AM 55.4 °F 53.6 °F 94% 30.16 in 4.0 mi Calm Calm - N/A   Clear
12:18 AM 53.6 °F 53.6 °F 100% 30.16 in 6.0 mi Calm Calm - N/A   Clear
12:23 AM 55.4 °F 55.4 °F 100% 30.16 in 10.0 mi Calm Calm - N/A   Clear
12:58 AM 54.3 °F 54.1 °F 99% 30.16 in 6.0 mi Calm Calm - N/A   Partly Cloudy
1:08 AM 55.4 °F 53.6 °F 94% 30.15 in 8.0 mi Calm Calm - N/A   Clear
1:13 AM 55.4 °F 53.6 °F 94% 30.15 in 4.0 mi WNW 1.2 mph - N/A   Clear
1:23 AM 55.4 °F 53.6 °F 94% 30.15 in 5.0 mi Calm Calm - N/A   Clear
1:33 AM 53.6 °F 53.6 °F 100% 30.15 in 10.0 mi Calm Calm - N/A   Clear
1:43 AM 55.4 °F 53.6 °F 94% 30.15 in 8.0 mi Calm Calm - N/A   Clear
1:58 AM 54.3 °F 54.0 °F 99% 30.16 in 10.0 mi Calm Calm - N/A   Clear
2:13 AM 53.6 °F 53.6 °F 100% 30.14 in 8.0 mi Calm Calm - N/A   Clear
2:18 AM 53.6 °F 53.6 °F 100% 30.14 in 4.0 mi Calm Calm - N/A   Clear
2:23 AM 53.6 °F 53.6 °F 100% 30.14 in 2.5 mi Calm Calm - N/A   Clear
2:28 AM 53.6 °F 53.6 °F 100% 30.14 in 1.0 mi Calm Calm - N/A   Clear
2:33 AM 53.6 °F 53.6 °F 100% 30.13 in 0.8 mi Calm Calm - N/A   Clear
2:38 AM 53.6 °F 53.6 °F 100% 30.13 in 0.5 mi Calm Calm - N/A Fog Fog
2:58 AM 53.1 °F 53.1 °F 100% 30.13 in 0.5 mi Calm Calm - N/A Fog Fog
3:08 AM 53.6 °F 53.6 °F 100% 30.12 in 0.5 mi Calm Calm - N/A Fog Fog
3:13 AM 53.6 °F 53.6 °F 100% 30.12 in 1.8 mi Calm Calm - N/A   Overcast
3:18 AM 53.6 °F 53.6 °F 100% 30.13 in 10.0 mi Calm Calm - N/A   Mostly Cloudy
3:58 AM 51.4 °F 51.4 °F 100% 30.13 in 10.0 mi Calm Calm - N/A   Partly Cloudy
4:48 AM 53.6 °F 53.6 °F 100% 30.11 in 8.0 mi Calm Calm - N/A   Overcast
4:53 AM 53.6 °F 53.6 °F 100% 30.11 in 4.0 mi Calm Calm - N/A   Overcast
4:58 AM 53.6 °F 53.6 °F 100% 30.12 in 4.0 mi Calm Calm - N/A   Overcast
5:03 AM 53.6 °F 53.6 °F 100% 30.11 in 8.0 mi Calm Calm - N/A   Overcast
5:08 AM 53.6 °F 53.6 °F 100% 30.11 in 10.0 mi Calm Calm - N/A   Overcast
5:58 AM 52.7 °F 52.5 °F 99% 30.12 in 10.0 mi Calm Calm - N/A   Clear
6:43 AM 53.6 °F 53.6 °F 100% 30.10 in 8.0 mi SE 2.3 mph - N/A   Clear
6:48 AM 53.6 °F 51.8 °F 94% 30.10 in 6.0 mi South 2.3 mph - N/A   Clear
6:58 AM 53.1 °F 52.9 °F 99% 30.11 in 7.0 mi Calm Calm - N/A   Clear
7:58 AM 52.5 °F 52.2 °F 99% 30.10 in 6.0 mi NW 4.6 mph - N/A   Clear
8:58 AM 58.3 °F 58.1 °F 99% 30.10 in 10.0 mi Calm Calm - N/A   Clear
9:58 AM 65.5 °F 63.3 °F 93% 30.10 in 10.0 mi SE 5.8 mph - N/A   Clear
10:58 AM 70.7 °F 64.0 °F 79% 30.09 in 10.0 mi SE 5.8 mph - N/A   Clear
11:58 AM 77.0 °F 64.0 °F 64% 30.08 in 10.0 mi SSE 11.5 mph 18.4 mph N/A   Clear
12:58 PM 79.2 °F 63.9 °F 59% 30.05 in 10.0 mi South 11.5 mph - N/A   Partly Cloudy
1:58 PM 79.5 °F 63.5 °F 58% 30.01 in 10.0 mi South 13.8 mph - N/A   Clear
2:58 PM 79.7 °F 62.8 °F 56% 29.99 in 10.0 mi South 11.5 mph - N/A   Mostly Cloudy
3:58 PM 79.5 °F 62.8 °F 56% 29.96 in 10.0 mi South 11.5 mph - N/A   Overcast
4:58 PM 77.9 °F 62.2 °F 58% 29.93 in 10.0 mi South 8.1 mph - N/A   Overcast
5:58 PM 77.4 °F 63.3 °F 62% 29.92 in 10.0 mi SSE 8.1 mph - N/A   Mostly Cloudy
6:28 PM 77.0 °F 64.4 °F 65% 29.92 in 10.0 mi South 6.9 mph - N/A   Overcast
6:58 PM 75.9 °F 63.7 °F 66% 29.92 in 10.0 mi SSE 9.2 mph - N/A   Overcast
7:08 PM 75.2 °F 64.4 °F 69% 29.91 in 10.0 mi SSE 9.2 mph - N/A   Overcast
7:53 PM 73.4 °F 62.6 °F 69% 29.92 in 10.0 mi South 8.1 mph - N/A   Mostly Cloudy
7:58 PM 73.8 °F 63.3 °F 70% 29.93 in 10.0 mi South 6.9 mph - N/A   Mostly Cloudy
8:28 PM 73.4 °F 62.6 °F 69% 29.92 in 10.0 mi SSE 6.9 mph - N/A   Mostly Cloudy
8:58 PM 73.2 °F 63.7 °F 72% 29.94 in 10.0 mi SSE 6.9 mph - N/A   Partly Cloudy
9:58 PM 71.6 °F 64.0 °F 77% 29.93 in 10.0 mi SSE 6.9 mph - N/A   Partly Cloudy
10:28 PM 71.6 °F 64.4 °F 78% 29.93 in 10.0 mi South 6.9 mph - N/A   Mostly Cloudy
10:58 PM 72.5 °F 65.1 °F 78% 29.94 in 10.0 mi South 11.5 mph - N/A   Overcast
11:53 PM 73.4 °F 66.2 °F 78% 29.92 in 10.0 mi South 13.8 mph - N/A   Overcast
11:58 PM 72.5 °F 66.7 °F 82% 29.93 in 10.0 mi South 12.7 mph - N/A   Overcast